Home   Weather   Enschede   Past weeks

Flag for Netherlands Past Weather in Enschede, Netherlands — Yesterday and Last 2 Weeks

Now
32 °F

Ice fog.


Feels Like: 25 °F
Forecast: 23 / 30 °F
Wind: 8 mph from Southeast

Location: Deelen

Current Time: Jan 24, 2017 at 10:38:08 pm

Latest Report: Jan 24, 2017 at 9:55 pm


Visibility: 2 mi

Pressure: 30.42 "Hg

Humidity: 93%

Dew Point: 30 °F

Location of EnschedeLocation

Past Weather in Enschede — Graph

°F

Enschede Temperature Yesterday

Maximum temperature yesterday: 34 °F (at 12:55 pm)
Minimum temperature yesterday: 14 °F (at 2:55 am)
Average temperature yesterday: 27 °F

High & Low Weather Summary for the Past Weeks

 TemperatureHumidityPressure
High48 °F (Jan 11, 12:55 pm)100% (Jan 10, 5:25 am)30.72 "Hg (Jan 10, 5:25 am)
Low14 °F (Jan 22, 8:25 am)41% (Jan 20, 11:55 am)29.00 "Hg (Jan 13, 12:55 am)
Average32 °F89%30.17 "Hg
* Reported Jan 9 9:25 pm — Jan 24 9:25 pm, Enschede, Weather by CustomWeather, © 2017

Note: Actual official high and low records may vary slightly from our data, if they occured in-between our weather recording intervals... More about our weather records

Advertising

Enschede Weather History for the Previous 24 Hours

Scroll right to see more
 ConditionsComfort  
Time TempWeatherWind HumidityBarometerVisibility
9:25 pm
Tue, Jan 24
32 °FIce fog.7 mph100%30.42 "Hg1 mi
8:55 pm32 °FIce fog.6 mph100%30.42 "Hg1 mi
8:25 pm32 °FIce fog.5 mph100%30.42 "Hg1 mi
7:55 pm32 °FIce fog.5 mph100%30.42 "Hg1 mi
7:25 pm32 °FIce fog.5 mph100%30.42 "Hg1 mi
6:25 pm32 °FIce fog.1 mph100%30.42 "Hg1 mi
5:55 pm32 °FIce fog.3 mph100%30.39 "Hg1 mi
5:25 pm32 °FFog.5 mph100%30.39 "Hg1 mi
4:55 pm34 °FFog.2 mph93%30.39 "Hg1 mi
4:25 pm34 °FFog.3 mph100%30.39 "Hg1 mi
3:55 pm34 °FFog.2 mph100%30.39 "Hg1 mi
3:25 pm34 °FFog.2 mph100%30.39 "Hg1 mi
2:55 pm34 °FFog.2 mph100%30.39 "Hg1 mi
2:25 pm34 °FFog.3 mph100%30.36 "Hg1 mi
1:55 pm34 °FFog.3 mph100%30.36 "Hg1 mi
1:25 pm34 °FFog.5 mph100%30.36 "Hg1 mi
12:55 pm34 °FFog.3 mph100%30.36 "Hg1 mi
12:25 pm34 °FFog.5 mph100%30.36 "Hg0 mi
11:55 am34 °FFog.3 mph100%30.36 "Hg1 mi
11:25 am34 °FFog.3 mph100%30.36 "Hg0 mi
10:55 am34 °FFog.3 mph100%30.36 "Hg0 mi
10:25 am34 °FFog.2 mph100%30.36 "Hg0 mi
9:55 am32 °FFog.5 mph100%30.33 "Hg0 mi
9:25 am32 °FFog.2 mph100%30.33 "Hg0 mi
8:55 am32 °FFog.2 mph100%30.33 "Hg0 mi
8:25 am32 °FFog.5 mph100%30.30 "Hg0 mi
7:55 am32 °FFog.2 mph100%30.30 "Hg0 mi
7:25 am32 °FFog.3 mph100%30.30 "Hg0 mi
6:55 am32 °FFog.3 mph100%30.30 "Hg0 mi
6:25 am32 °FFog.3 mph100%30.30 "Hg0 mi
5:55 am32 °FFog.3 mph100%30.27 "Hg0 mi
5:25 am32 °FFog.3 mph100%30.27 "Hg0 mi
4:55 am32 °FFog.3 mph100%30.27 "Hg0 mi
4:25 am32 °FFog.3 mph100%30.27 "Hg0 mi
3:55 am32 °FSnow flurries. Dense fog.3 mph100%30.27 "Hg0 mi
3:25 am32 °FFog.3 mph100%30.27 "Hg0 mi
2:55 am32 °FFog.3 mph100%30.27 "Hg0 mi
2:25 am32 °FFog.3 mph100%30.27 "Hg0 mi
1:55 am32 °FFog.3 mph100%30.27 "Hg0 mi
1:25 am32 °FIce fog.5 mph100%30.27 "Hg1 mi
12:55 am32 °FIce fog.5 mph100%30.30 "Hg1 mi
12:25 am32 °FIce fog.5 mph100%30.30 "Hg1 mi
11:55 pm
Mon, Jan 23
32 °FIce fog.3 mph100%30.30 "Hg1 mi
11:25 pm32 °FIce fog.5 mph93%30.30 "Hg1 mi
10:55 pm32 °FIce fog.5 mph93%30.30 "Hg1 mi
10:25 pm32 °FIce fog.3 mph93%30.30 "Hg1 mi
Weather by CustomWeather, © 2017

See weather overviewHow to use our weather pages